| time (UTC) | temp F | wind direction | speed knots | gust knots | rain 1hr in | rain 24hr in | rain mn in | humidity % | barometer mb |
| 20260906064456 | 58 | 75 | 0.0 | 0.0 | 0.00 | 0.00 | 0.00 | 88 | 1017.7 |
| 20260906063958 | 58 | 75 | 0.0 | 0.0 | 0.00 | 0.00 | 0.00 | 87 | 1017.7 |
| 20260906063456 | 58 | 75 | 0.0 | 0.0 | 0.00 | 0.00 | 0.00 | 87 | 1017.6 |
| 20260906062957 | 59 | 75 | 0.0 | 0.0 | 0.00 | 0.00 | 0.00 | 87 | 1017.6 |
| 20260906062456 | 59 | 75 | 0.0 | 0.0 | 0.00 | 0.00 | 0.00 | 87 | 1017.5 |
| 20260906061957 | 59 | 75 | 0.0 | 0.0 | 0.00 | 0.00 | 0.00 | 87 | 1017.4 |
| 20260906054456 | 60 | 75 | 0.0 | 0.0 | 0.00 | 0.00 | 0.00 | 87 | 1017.5 |
| 20260906053956 | 60 | 75 | 0.0 | 0.0 | 0.00 | 0.00 | 0.00 | 88 | 1017.4 |
| 20260906053456 | 60 | 75 | 0.0 | 0.0 | 0.00 | 0.00 | 0.00 | 87 | 1017.4 |
| 20260906052957 | 61 | 75 | 0.0 | 0.9 | 0.00 | 0.00 | 0.00 | 87 | 1017.3 |
| 20260906052456 | 61 | 75 | 0.0 | 0.9 | 0.00 | 0.00 | 0.00 | 87 | 1017.1 |
| 20260906051955 | 61 | 75 | 0.0 | 0.0 | 0.00 | 0.00 | 0.00 | 87 | 1017.2 |
| 20260906051456 | 61 | 75 | 0.0 | 0.0 | 0.00 | 0.00 | 0.00 | 87 | 1017.3 |
| 20260906050956 | 61 | 75 | 0.0 | 0.0 | 0.00 | 0.00 | 0.00 | 87 | 1017.3 |
| 20260906050456 | 61 | 75 | 0.0 | 0.0 | 0.00 | 0.00 | 0.00 | 87 | 1017.2 |
| 20260906045957 | 62 | 75 | 0.0 | 0.0 | 0.00 | 0.00 | 0.00 | 87 | 1017.1 |
| 20260906045458 | 62 | 75 | 0.0 | 0.0 | 0.00 | 0.00 | 0.00 | 87 | 1017.0 |
| 20260906044957 | 62 | 75 | 0.0 | 0.9 | 0.00 | 0.00 | 0.00 | 87 | 1016.9 |
| 20260906044457 | 62 | 53 | 0.0 | 0.0 | 0.00 | 0.00 | 0.00 | 87 | 1016.9 |
| 20260906040958 | 63 | 276 | 0.0 | 0.9 | 0.00 | 0.00 | 0.00 | 86 | 1016.6 |
| 20260906040457 | 63 | 70 | 0.0 | 1.7 | 0.00 | 0.00 | 0.00 | 86 | 1016.7 |
| 20260906040002 | 63 | 70 | 0.0 | 1.7 | 0.00 | 0.00 | 0.00 | 86 | 1016.7 |
| 20260906035457 | 63 | 78 | 0.0 | 0.9 | 0.00 | 0.00 | 0.00 | 85 | 1016.7 |
| 20260906034958 | 63 | 78 | 0.0 | 0.0 | 0.00 | 0.00 | 0.00 | 85 | 1016.7 |
| 20260906034459 | 63 | 78 | 0.0 | 0.0 | 0.00 | 0.00 | 0.00 | 85 | 1016.7 |
| 20260906033958 | 64 | 78 | 0.0 | 0.0 | 0.00 | 0.00 | 0.00 | 85 | 1016.5 |
| 20260906033457 | 64 | 78 | 0.0 | 0.9 | 0.00 | 0.00 | 0.00 | 85 | 1016.4 |
| 20260906032957 | 64 | 78 | 0.0 | 0.9 | 0.00 | 0.00 | 0.00 | 85 | 1016.4 |
| 20260906032501 | 64 | 78 | 0.0 | 0.9 | 0.00 | 0.00 | 0.00 | 85 | 1016.6 |
| 20260906031958 | 64 | 78 | 0.0 | 0.9 | 0.00 | 0.00 | 0.00 | 85 | 1016.4 |
| 20260906031458 | 64 | 78 | 0.0 | 0.9 | 0.00 | 0.00 | 0.00 | 84 | 1016.4 |
| 20260906030957 | 64 | 78 | 0.0 | 0.9 | 0.00 | 0.00 | 0.00 | 84 | 1016.4 |
| 20260906030458 | 64 | 77 | 0.0 | 0.0 | 0.00 | 0.00 | 0.00 | 84 | 1016.2 |
| 20260906025957 | 65 | 91 | 0.0 | 0.9 | 0.00 | 0.00 | 0.00 | 84 | 1016.2 |
| 20260906025457 | 65 | 105 | 0.0 | 0.9 | 0.00 | 0.00 | 0.00 | 84 | 1016.2 |
| 20260906024958 | 65 | 105 | 0.0 | 0.9 | 0.00 | 0.00 | 0.00 | 84 | 1016.1 |
| 20260906024457 | 65 | 105 | 0.0 | 0.9 | 0.00 | 0.00 | 0.00 | 84 | 1016.3 |
| 20260906023957 | 65 | 50 | 0.0 | 0.9 | 0.00 | 0.00 | 0.00 | 84 | 1016.1 |
| 20260906023457 | 65 | 50 | 0.0 | 0.9 | 0.00 | 0.00 | 0.00 | 84 | 1016.2 |
| 20260906022958 | 65 | 307 | 0.0 | 0.9 | 0.00 | 0.00 | 0.00 | 84 | 1016.2 |
| 20260906015458 | 66 | 83 | 0.0 | 0.0 | 0.00 | 0.00 | 0.00 | 83 | 1015.9 |
| 20260906014957 | 66 | 83 | 0.0 | 0.0 | 0.00 | 0.00 | 0.00 | 83 | 1015.7 |
| 20260906014457 | 67 | 83 | 0.0 | 0.0 | 0.00 | 0.00 | 0.00 | 83 | 1015.7 |
| 20260906013958 | 67 | 83 | 0.0 | 0.0 | 0.00 | 0.00 | 0.00 | 82 | 1015.7 |
| 20260906013457 | 67 | 83 | 0.0 | 0.0 | 0.00 | 0.00 | 0.00 | 82 | 1015.7 |
| 20260906012957 | 67 | 83 | 0.0 | 0.0 | 0.00 | 0.00 | 0.00 | 82 | 1015.7 |
| 20260906012458 | 68 | 83 | 0.0 | 0.0 | 0.00 | 0.00 | 0.00 | 82 | 1015.6 |
| 20260906011957 | 68 | 83 | 0.0 | 0.0 | 0.00 | 0.00 | 0.00 | 82 | 1015.5 |
| 20260906011458 | 69 | 83 | 0.0 | 0.0 | 0.00 | 0.00 | 0.00 | 82 | 1015.3 |
| 20260906010957 | 69 | 83 | 0.0 | 0.0 | 0.00 | 0.00 | 0.00 | 80 | 1015.3 |
| 20260906010457 | 69 | 83 | 0.0 | 0.0 | 0.00 | 0.00 | 0.00 | 80 | 1015.3 |
| 20260906005957 | 69 | 83 | 0.0 | 0.0 | 0.00 | 0.00 | 0.00 | 80 | 1015.2 |
| 20260906005457 | 70 | 83 | 0.0 | 0.0 | 0.00 | 0.00 | 0.00 | 81 | 1015.1 |
| 20260906004957 | 70 | 83 | 0.0 | 0.0 | 0.00 | 0.00 | 0.00 | 80 | 1015.0 |
| 20260906004456 | 71 | 83 | 0.0 | 0.0 | 0.00 | 0.00 | 0.00 | 79 | 1014.9 |
| 20260906003956 | 71 | 83 | 0.0 | 0.0 | 0.00 | 0.00 | 0.00 | 79 | 1014.9 |
| 20260906003456 | 71 | 83 | 0.0 | 0.0 | 0.00 | 0.00 | 0.00 | 79 | 1015.0 |
| 20260906002956 | 72 | 83 | 0.0 | 0.0 | 0.00 | 0.00 | 0.00 | 79 | 1015.0 |
| 20260906002457 | 72 | 83 | 0.0 | 0.0 | 0.00 | 0.00 | 0.00 | 79 | 1015.0 |
| 20260906001956 | 72 | 83 | 0.0 | 0.0 | 0.00 | 0.00 | 0.00 | 79 | 1015.0 |
| 20260906001457 | 72 | 83 | 0.0 | 0.0 | 0.00 | 0.00 | 0.00 | 79 | 1015.0 |
| 20260906000956 | 73 | 83 | 0.0 | 0.0 | 0.00 | 0.00 | 0.00 | 78 | 1015.0 |
| 20260906000456 | 73 | 83 | 0.0 | 0.0 | 0.00 | 0.00 | 0.00 | 78 | 1015.2 |
| 20260905235957 | 73 | 83 | 0.0 | 0.9 | 0.00 | 0.00 | 0.00 | 78 | 1015.1 |
| 20260905235457 | 73 | 83 | 0.0 | 0.9 | 0.00 | 0.00 | 0.00 | 77 | 1015.0 |
| 20260905234957 | 74 | 83 | 0.0 | 1.7 | 0.00 | 0.00 | 0.00 | 77 | 1014.9 |
| 20260905234457 | 74 | 86 | 0.9 | 1.7 | 0.00 | 0.00 | 0.00 | 76 | 1014.9 |
| 20260905233957 | 74 | 91 | 0.0 | 0.9 | 0.00 | 0.00 | 0.00 | 77 | 1015.0 |
| 20260905233457 | 74 | 68 | 0.0 | 0.9 | 0.00 | 0.00 | 0.00 | 77 | 1015.0 |
| 20260905232957 | 74 | 68 | 0.0 | 0.9 | 0.00 | 0.00 | 0.00 | 77 | 1015.0 |
| 20260905232457 | 74 | 77 | 0.0 | 0.9 | 0.00 | 0.00 | 0.00 | 78 | 1015.0 |
| 20260905231957 | 74 | 77 | 0.0 | 0.9 | 0.00 | 0.00 | 0.00 | 77 | 1015.1 |
| 20260905231457 | 74 | 93 | 0.0 | 1.7 | 0.00 | 0.00 | 0.00 | 77 | 1015.0 |
| 20260905230958 | 74 | 86 | 0.0 | 0.9 | 0.00 | 0.00 | 0.00 | 77 | 1015.0 |
| 20260905230457 | 75 | 86 | 0.0 | 2.6 | 0.00 | 0.00 | 0.00 | 77 | 1014.9 |
| 20260905225957 | 75 | 54 | 0.0 | 1.7 | 0.00 | 0.00 | 0.00 | 76 | 1014.8 |
| 20260905225456 | 75 | 78 | 0.9 | 1.7 | 0.00 | 0.00 | 0.00 | 75 | 1014.7 |
| 20260905224957 | 76 | 70 | 0.0 | 1.7 | 0.00 | 0.00 | 0.00 | 75 | 1014.7 |
| 20260905224456 | 76 | 74 | 0.0 | 2.6 | 0.00 | 0.00 | 0.00 | 74 | 1014.7 |
| 20260905223956 | 76 | 48 | 0.0 | 3.5 | 0.00 | 0.00 | 0.00 | 73 | 1014.6 |
| 20260905223456 | 76 | 23 | 1.7 | 3.5 | 0.00 | 0.00 | 0.00 | 72 | 1014.6 |
| 20260905222956 | 77 | 78 | 0.0 | 1.7 | 0.00 | 0.00 | 0.00 | 74 | 1014.5 |
| 20260905222456 | 77 | 66 | 0.9 | 3.5 | 0.00 | 0.00 | 0.00 | 73 | 1014.5 |
| 20260905221956 | 78 | 59 | 0.0 | 3.5 | 0.00 | 0.00 | 0.00 | 73 | 1014.6 |
| 20260905221457 | 78 | 357 | 0.9 | 3.5 | 0.00 | 0.00 | 0.00 | 72 | 1014.5 |
| 20260905220956 | 78 | 89 | 0.9 | 3.5 | 0.00 | 0.00 | 0.00 | 73 | 1014.4 |
| 20260905220456 | 78 | 120 | 0.9 | 3.5 | 0.00 | 0.00 | 0.00 | 72 | 1014.3 |
| 20260905215957 | 78 | 40 | 0.9 | 2.6 | 0.00 | 0.00 | 0.00 | 75 | 1014.4 |
| 20260905215456 | 77 | 72 | 0.9 | 1.7 | 0.00 | 0.00 | 0.00 | 77 | 1014.3 |
| 20260905214956 | 77 | 79 | 0.0 | 2.6 | 0.00 | 0.00 | 0.00 | 76 | 1014.2 |
| 20260905214457 | 76 | 89 | 0.9 | 4.3 | 0.00 | 0.00 | 0.00 | 77 | 1014.2 |
| 20260905213956 | 76 | 66 | 0.9 | 4.3 | 0.00 | 0.00 | 0.00 | 75 | 1014.1 |
| 20260905213456 | 77 | 86 | 0.9 | 2.6 | 0.00 | 0.00 | 0.00 | 76 | 1014.2 |
| 20260905212956 | 77 | 78 | 0.9 | 2.6 | 0.00 | 0.00 | 0.00 | 75 | 1014.2 |
| 20260905212456 | 79 | 59 | 0.9 | 2.6 | 0.00 | 0.00 | 0.00 | 71 | 1014.2 |
| 20260905211955 | 80 | 53 | 0.9 | 2.6 | 0.00 | 0.00 | 0.00 | 72 | 1014.2 |
| 20260905211456 | 80 | 64 | 0.9 | 5.2 | 0.00 | 0.00 | 0.00 | 69 | 1014.1 |
| 20260905210956 | 80 | 58 | 1.7 | 5.2 | 0.00 | 0.00 | 0.00 | 68 | 1014.1 |
| 20260905210456 | 80 | 49 | 0.9 | 3.5 | 0.00 | 0.00 | 0.00 | 70 | 1014.1 |
| 20260905205959 | 80 | 137 | 0.0 | 1.7 | 0.00 | 0.00 | 0.00 | 74 | 1014.1 |
| 20260905205457 | 79 | 70 | 0.9 | 2.6 | 0.00 | 0.00 | 0.00 | 72 | 1014.1 |
| 20260905204958 | 80 | 100 | 0.9 | 2.6 | 0.00 | 0.00 | 0.00 | 75 | 1014.0 |
| 20260905204457 | 79 | 96 | 0.9 | 6.1 | 0.00 | 0.00 | 0.00 | 74 | 1014.1 |
| 20260905200957 | 78 | 58 | 0.9 | 2.6 | 0.00 | 0.00 | 0.00 | 77 | 1014.5 |
| 20260905200457 | 79 | 84 | 0.9 | 2.6 | 0.00 | 0.00 | 0.00 | 73 | 1014.4 |
| 20260905195958 | 79 | 63 | 0.9 | 2.6 | 0.00 | 0.00 | 0.00 | 75 | 1014.4 |
| 20260905195458 | 78 | 70 | 1.7 | 4.3 | 0.00 | 0.00 | 0.00 | 77 | 1014.4 |
| 20260905194957 | 77 | 107 | 1.7 | 4.3 | 0.00 | 0.00 | 0.00 | 77 | 1014.4 |
| 20260905194457 | 76 | 58 | 0.0 | 2.6 | 0.00 | 0.00 | 0.00 | 78 | 1014.4 |
| 20260905193957 | 76 | 102 | 0.9 | 2.6 | 0.00 | 0.00 | 0.00 | 80 | 1014.5 |
| 20260905193457 | 76 | 110 | 0.0 | 1.7 | 0.00 | 0.00 | 0.00 | 80 | 1014.5 |
| 20260905192957 | 76 | 66 | 0.0 | 2.6 | 0.00 | 0.00 | 0.00 | 81 | 1014.6 |
| 20260905192456 | 76 | 84 | 0.9 | 2.6 | 0.00 | 0.00 | 0.00 | 80 | 1014.5 |
| 20260905191957 | 76 | 80 | 0.9 | 3.5 | 0.00 | 0.00 | 0.00 | 82 | 1014.6 |
| 20260905191458 | 76 | 82 | 1.7 | 3.5 | 0.00 | 0.00 | 0.00 | 79 | 1014.7 |
| 20260905183458 | 74 | 23 | 0.0 | 0.9 | 0.00 | 0.00 | 0.00 | 84 | 1015.1 |
| 20260905182957 | 74 | 23 | 0.0 | 0.9 | 0.00 | 0.00 | 0.00 | 84 | 1015.1 |
| 20260905182457 | 73 | 68 | 0.0 | 0.0 | 0.00 | 0.00 | 0.00 | 84 | 1014.9 |
| 20260905181957 | 73 | 68 | 0.0 | 0.0 | 0.00 | 0.00 | 0.00 | 85 | 1015.0 |
| 20260905181457 | 73 | 68 | 0.0 | 0.0 | 0.00 | 0.00 | 0.00 | 85 | 1015.0 |
| 20260905180957 | 73 | 68 | 0.0 | 0.0 | 0.00 | 0.00 | 0.00 | 86 | 1015.0 |
| 20260905180458 | 73 | 68 | 0.0 | 0.0 | 0.00 | 0.00 | 0.00 | 84 | 1014.9 |
| 20260905175956 | 73 | 68 | 0.0 | 0.0 | 0.00 | 0.00 | 0.00 | 85 | 1015.0 |
| 20260905175457 | 73 | 68 | 0.0 | 0.9 | 0.00 | 0.00 | 0.00 | 86 | 1015.0 |
| 20260905174956 | 72 | 68 | 0.0 | 0.9 | 0.00 | 0.00 | 0.00 | 85 | 1015.0 |
| 20260905174456 | 72 | 78 | 0.0 | 0.9 | 0.00 | 0.00 | 0.00 | 85 | 1015.0 |
| 20260905173956 | 72 | 59 | 0.0 | 0.9 | 0.00 | 0.00 | 0.00 | 85 | 1014.9 |
| 20260905165958 | 71 | 40 | 0.0 | 2.6 | 0.00 | 0.00 | 0.00 | 86 | 1014.8 |
| 20260905165457 | 71 | 65 | 0.9 | 2.6 | 0.00 | 0.01 | 0.00 | 85 | 1014.9 |
| 20260905164957 | 71 | 69 | 0.0 | 1.7 | 0.00 | 0.01 | 0.00 | 86 | 1014.9 |
| 20260905164458 | 72 | 78 | 0.0 | 2.6 | 0.00 | 0.01 | 0.00 | 86 | 1014.9 |
| 20260905163957 | 72 | 59 | 0.9 | 2.6 | 0.00 | 0.01 | 0.00 | 85 | 1015.0 |
| 20260905163457 | 72 | 85 | 0.9 | 2.6 | 0.00 | 0.01 | 0.00 | 86 | 1015.0 |
| 20260905162957 | 72 | 22 | 0.0 | 1.7 | 0.00 | 0.01 | 0.00 | 85 | 1014.9 |
| 20260905162457 | 72 | 59 | 0.0 | 2.6 | 0.00 | 0.01 | 0.00 | 86 | 1014.8 |
| 20260905161957 | 72 | 57 | 0.0 | 2.6 | 0.00 | 0.01 | 0.00 | 85 | 1014.8 |
| 20260905161457 | 72 | 57 | 0.9 | 2.6 | 0.00 | 0.01 | 0.00 | 85 | 1014.8 |
| 20260905160956 | 72 | 26 | 0.9 | 2.6 | 0.00 | 0.01 | 0.00 | 85 | 1014.8 |
| 20260905160456 | 72 | 142 | 0.9 | 2.6 | 0.00 | 0.01 | 0.00 | 85 | 1014.7 |
| 20260905155957 | 73 | 32 | 0.9 | 1.7 | 0.00 | 0.03 | 0.00 | 85 | 1014.6 |
| 20260905155457 | 73 | 65 | 0.0 | 1.7 | 0.00 | 0.03 | 0.00 | 85 | 1014.7 |
| 20260905154957 | 72 | 97 | 0.9 | 1.7 | 0.00 | 0.03 | 0.00 | 86 | 1014.7 |
| 20260905154458 | 72 | 39 | 0.9 | 2.6 | 0.00 | 0.03 | 0.00 | 85 | 1014.7 |
| 20260905153957 | 71 | 58 | 0.0 | 2.6 | 0.00 | 0.03 | 0.00 | 87 | 1014.8 |
| 20260905153457 | 71 | 77 | 0.0 | 4.3 | 0.00 | 0.03 | 0.00 | 87 | 1014.8 |
| 20260905152956 | 71 | 3 | 0.9 | 5.2 | 0.00 | 0.03 | 0.00 | 87 | 1014.8 |
| 20260905152457 | 71 | 118 | 0.9 | 5.2 | 0.00 | 0.03 | 0.00 | 86 | 1014.8 |
| 20260905151957 | 71 | 95 | 0.9 | 4.3 | 0.00 | 0.03 | 0.00 | 86 | 1014.7 |
| 20260905151457 | 71 | 31 | 0.9 | 4.3 | 0.00 | 0.03 | 0.00 | 86 | 1014.7 |
| 20260905150958 | 71 | 78 | 0.0 | 3.5 | 0.00 | 0.03 | 0.00 | 87 | 1014.7 |
| 20260905150457 | 70 | 31 | 0.9 | 3.5 | 0.00 | 0.03 | 0.00 | 87 | 1014.6 |
| 20260905145959 | 70 | 1 | 0.9 | 3.5 | 0.00 | 0.03 | 0.00 | 87 | 1014.5 |
| 20260905145457 | 70 | 21 | 0.9 | 2.6 | 0.00 | 0.16 | 0.00 | 88 | 1014.4 |
| 20260905144957 | 70 | 88 | 0.9 | 2.6 | 0.00 | 0.16 | 0.00 | 88 | 1014.3 |
| 20260905144457 | 70 | 68 | 0.9 | 3.5 | 0.00 | 0.16 | 0.00 | 88 | 1014.3 |
| 20260905143956 | 70 | 82 | 0.9 | 2.6 | 0.00 | 0.16 | 0.00 | 88 | 1014.4 |
| 20260905143456 | 70 | 95 | 0.9 | 2.6 | 0.00 | 0.16 | 0.00 | 88 | 1014.4 |
| 20260905142957 | 69 | 80 | 0.9 | 4.3 | 0.00 | 0.16 | 0.00 | 88 | 1014.3 |
| 20260905142457 | 69 | 12 | 0.9 | 4.3 | 0.00 | 0.16 | 0.00 | 88 | 1014.4 |
| 20260905134956 | 67 | 61 | 0.9 | 2.6 | 0.00 | 0.36 | 0.00 | 89 | 1014.3 |
| 20260905134459 | 67 | 66 | 0.9 | 2.6 | 0.00 | 0.36 | 0.00 | 89 | 1014.3 |
| 20260905133957 | 67 | 68 | 0.9 | 2.6 | 0.00 | 0.36 | 0.00 | 89 | 1014.3 |
| 20260905133457 | 67 | 72 | 0.9 | 5.2 | 0.00 | 0.36 | 0.00 | 89 | 1014.3 |
| 20260905132957 | 67 | 66 | 0.9 | 5.2 | 0.00 | 0.36 | 0.00 | 89 | 1014.2 |
| 20260905132456 | 67 | 69 | 0.9 | 2.6 | 0.00 | 0.36 | 0.00 | 89 | 1014.3 |
| 20260905131957 | 67 | 50 | 0.9 | 2.6 | 0.00 | 0.36 | 0.00 | 89 | 1014.3 |
| 20260905131457 | 67 | 71 | 0.9 | 2.6 | 0.00 | 0.36 | 0.00 | 89 | 1014.2 |
| 20260905130957 | 66 | 64 | 1.7 | 3.5 | 0.00 | 0.36 | 0.00 | 89 | 1014.2 |
| 20260905130457 | 66 | 90 | 0.9 | 4.3 | 0.00 | 0.36 | 0.00 | 89 | 1014.2 |
| 20260905125957 | 66 | 70 | 0.9 | 4.3 | 0.00 | 0.52 | 0.00 | 89 | 1014.2 |
| 20260905125456 | 66 | 60 | 0.9 | 2.6 | 0.00 | 0.52 | 0.00 | 89 | 1014.2 |
| 20260905124957 | 66 | 74 | 1.7 | 2.6 | 0.00 | 0.52 | 0.00 | 89 | 1014.1 |
| 20260905124457 | 66 | 74 | 0.9 | 2.6 | 0.00 | 0.52 | 0.00 | 90 | 1014.0 |
| 20260905123956 | 66 | 64 | 0.9 | 2.6 | 0.00 | 0.52 | 0.00 | 90 | 1014.0 |
| 20260905123458 | 66 | 63 | 0.9 | 2.6 | 0.00 | 0.52 | 0.00 | 90 | 1014.0 |
| 20260905122957 | 66 | 74 | 1.7 | 5.2 | 0.00 | 0.52 | 0.00 | 90 | 1013.9 |
| 20260905122457 | 66 | 94 | 2.6 | 5.2 | 0.00 | 0.52 | 0.00 | 90 | 1013.9 |
| 20260905122000 | 66 | 72 | 0.9 | 2.6 | 0.00 | 0.52 | 0.00 | 90 | 1013.8 |
| 20260905121457 | 66 | 53 | 0.0 | 3.5 | 0.00 | 0.52 | 0.00 | 90 | 1013.8 |
| 20260905120957 | 66 | 47 | 0.9 | 3.5 | 0.00 | 0.52 | 0.00 | 90 | 1013.7 |
| 20260905120457 | 66 | 61 | 0.9 | 1.7 | 0.00 | 0.52 | 0.00 | 90 | 1013.6 |
| 20260905115957 | 66 | 75 | 0.9 | 2.6 | 0.00 | 1.13 | 0.00 | 90 | 1013.6 |
| 20260905115457 | 66 | 86 | 0.9 | 3.5 | 0.00 | 1.13 | 0.00 | 90 | 1013.6 |
| 20260905114957 | 66 | 53 | 0.9 | 3.5 | 0.00 | 1.13 | 0.00 | 90 | 1013.5 |
| 20260905114457 | 66 | 81 | 0.9 | 3.5 | 0.00 | 1.13 | 0.00 | 90 | 1013.3 |
| 20260905113957 | 66 | 6 | 0.9 | 3.5 | 0.00 | 1.13 | 0.00 | 90 | 1013.3 |
| 20260905113458 | 66 | 107 | 0.9 | 3.5 | 0.00 | 1.13 | 0.00 | 91 | 1013.4 |
| 20260905112958 | 67 | 91 | 1.7 | 4.3 | 0.00 | 1.13 | 0.00 | 91 | 1013.4 |
| 20260905112457 | 67 | 77 | 1.7 | 3.5 | 0.00 | 1.13 | 0.00 | 91 | 1013.3 |
| 20260905111958 | 67 | 70 | 0.9 | 2.6 | 0.00 | 1.13 | 0.00 | 91 | 1013.4 |
| 20260905111457 | 67 | 60 | 0.9 | 1.7 | 0.00 | 1.13 | 0.00 | 91 | 1013.5 |
| 20260905110957 | 67 | 84 | 0.0 | 1.7 | 0.00 | 1.13 | 0.00 | 91 | 1013.4 |
| 20260905110457 | 67 | 54 | 0.9 | 2.6 | 0.00 | 1.13 | 0.00 | 91 | 1013.2 |
| 20260905105957 | 67 | 94 | 0.9 | 5.2 | 0.00 | 1.15 | 0.00 | 91 | 1013.0 |
| 20260905105456 | 67 | 47 | 0.9 | 5.2 | 0.00 | 1.15 | 0.00 | 91 | 1012.9 |
| 20260905104956 | 67 | 76 | 0.9 | 2.6 | 0.00 | 1.15 | 0.00 | 91 | 1013.0 |
| 20260905104457 | 67 | 64 | 0.9 | 1.7 | 0.00 | 1.15 | 0.00 | 91 | 1013.1 |
| 20260905103956 | 67 | 80 | 0.9 | 2.6 | 0.00 | 1.15 | 0.00 | 91 | 1013.0 |
| 20260905103458 | 67 | 55 | 0.9 | 3.5 | 0.00 | 1.15 | 0.00 | 91 | 1013.1 |
| 20260905102957 | 68 | 70 | 1.7 | 4.3 | 0.00 | 1.15 | 0.00 | 91 | 1013.0 |
| 20260905102457 | 68 | 78 | 0.9 | 4.3 | 0.00 | 1.15 | 0.00 | 91 | 1012.8 |
| 20260905101956 | 68 | 101 | 0.9 | 2.6 | 0.00 | 1.15 | 0.00 | 91 | 1012.9 |
| 20260905101457 | 68 | 59 | 1.7 | 2.6 | 0.00 | 1.15 | 0.00 | 91 | 1012.9 |
| 20260905100957 | 68 | 98 | 1.7 | 3.5 | 0.00 | 1.15 | 0.00 | 91 | 1013.0 |
| 20260905100456 | 68 | 61 | 1.7 | 3.5 | 0.00 | 1.15 | 0.00 | 91 | 1013.1 |
| 20260905095959 | 68 | 72 | 0.9 | 1.7 | 0.00 | 1.15 | 0.00 | 91 | 1013.0 |
| 20260905095459 | 68 | 72 | 0.9 | 2.6 | 0.00 | 1.15 | 0.00 | 91 | 1012.9 |
| 20260905094959 | 69 | 107 | 0.9 | 2.6 | 0.00 | 1.15 | 0.00 | 91 | 1012.8 |
| 20260905094457 | 69 | 83 | 0.9 | 3.5 | 0.00 | 1.15 | 0.00 | 91 | 1012.9 |
| 20260905093957 | 69 | 101 | 1.7 | 4.3 | 0.00 | 1.15 | 0.00 | 91 | 1012.7 |
| 20260905093457 | 69 | 70 | 0.9 | 4.3 | 0.00 | 1.15 | 0.00 | 91 | 1012.9 |
| 20260905092957 | 69 | 73 | 0.9 | 4.3 | 0.00 | 1.15 | 0.00 | 91 | 1012.9 |
| 20260905092456 | 69 | 63 | 0.9 | 2.6 | 0.00 | 1.15 | 0.00 | 91 | 1012.8 |
| 20260905091957 | 69 | 59 | 0.9 | 3.5 | 0.00 | 1.15 | 0.00 | 91 | 1012.7 |
| 20260905091457 | 69 | 78 | 1.7 | 2.6 | 0.00 | 1.15 | 0.00 | 91 | 1012.6 |
| 20260905090956 | 69 | 72 | 0.9 | 2.6 | 0.00 | 1.15 | 0.00 | 91 | 1012.4 |
| 20260905090456 | 69 | 20 | 0.9 | 2.6 | 0.00 | 1.15 | 0.00 | 91 | 1012.5 |
| 20260905085957 | 69 | 67 | 0.9 | 2.6 | 0.00 | 1.34 | 0.00 | 91 | 1012.7 |
| 20260905085456 | 69 | 90 | 0.9 | 4.3 | 0.00 | 1.34 | 0.00 | 91 | 1012.7 |
| 20260905084956 | 69 | 99 | 0.9 | 4.3 | 0.00 | 1.34 | 0.00 | 91 | 1012.8 |
| 20260905084456 | 69 | 61 | 1.7 | 4.3 | 0.00 | 1.34 | 0.00 | 91 | 1012.8 |
| 20260905083956 | 69 | 78 | 0.9 | 1.7 | 0.00 | 1.34 | 0.00 | 91 | 1012.8 |
| 20260905083457 | 69 | 78 | 0.9 | 1.7 | 0.00 | 1.34 | 0.00 | 91 | 1012.8 |
| 20260905082956 | 69 | 81 | 0.0 | 1.7 | 0.00 | 1.34 | 0.00 | 91 | 1012.7 |
| 20260905082456 | 69 | 85 | 0.9 | 1.7 | 0.00 | 1.34 | 0.00 | 91 | 1012.7 |
| 20260905081956 | 69 | 85 | 0.9 | 1.7 | 0.00 | 1.34 | 0.00 | 91 | 1012.7 |
| 20260905081456 | 69 | 85 | 0.9 | 2.6 | 0.00 | 1.34 | 0.00 | 91 | 1012.7 |
| 20260905080957 | 69 | 93 | 0.9 | 2.6 | 0.00 | 1.34 | 0.00 | 91 | 1012.6 |
| 20260905080456 | 69 | 128 | 0.9 | 2.6 | 0.00 | 1.34 | 0.00 | 91 | 1012.7 |
| 20260905075957 | 69 | 59 | 0.9 | 2.6 | 0.00 | 1.54 | 0.00 | 91 | 1012.8 |
| 20260905075457 | 69 | 70 | 0.9 | 1.7 | 0.00 | 1.54 | 0.00 | 91 | 1012.8 |
| 20260905074957 | 69 | 67 | 0.9 | 4.3 | 0.00 | 1.54 | 0.00 | 91 | 1012.7 |
| 20260905074456 | 69 | 74 | 1.7 | 3.5 | 0.00 | 1.54 | 0.00 | 91 | 1012.8 |
| 20260905073957 | 69 | 73 | 0.9 | 2.6 | 0.00 | 1.54 | 0.00 | 91 | 1012.8 |
| 20260905073457 | 69 | 59 | 0.0 | 1.7 | 0.00 | 1.54 | 0.00 | 91 | 1012.8 |
| 20260905072956 | 69 | 59 | 0.0 | 1.7 | 0.00 | 1.54 | 0.00 | 91 | 1012.8 |
| 20260905072457 | 69 | 4 | 0.0 | 1.7 | 0.00 | 1.54 | 0.00 | 91 | 1012.8 |
| 20260905071956 | 69 | 101 | 0.0 | 2.6 | 0.00 | 1.54 | 0.00 | 91 | 1012.9 |
| 20260905071457 | 69 | 101 | 0.9 | 2.6 | 0.00 | 1.54 | 0.00 | 91 | 1012.8 |
| 20260905070956 | 69 | 63 | 0.9 | 2.6 | 0.00 | 1.54 | 0.00 | 91 | 1012.8 |
| 20260905070456 | 69 | 71 | 0.9 | 2.6 | 0.00 | 1.54 | 0.00 | 91 | 1012.8 |
| 20260905065959 | 69 | 80 | 0.9 | 2.6 | 0.00 | 1.54 | 0.00 | 91 | 1012.8 |
| 20260905065458 | 69 | 78 | 0.0 | 2.6 | 0.00 | 1.54 | 0.00 | 91 | 1012.8 |
| 20260905064958 | 69 | 78 | 0.9 | 2.6 | 0.00 | 1.54 | 0.00 | 91 | 1012.8 |